Notices

What's New in latest Release from April 7th, 2021:

- Updated Glossary, including Speed of Maximum Gust, and Total Hourly Precipitation

- Updated national and regional climate services offices contacts and prices information

- Addition of station inventory lists for 1981-2010, 1971-2000, and 1961-1990 Normals.

If you haven't already, please take our survey and provide feedback about our website: https://eccc.sondage-survey.ca/f/LanguageSelection.aspx?s=442ca660-fcf1-47c0-95a9-59707d6fd709

Hourly Data Report for March 18, 2020

MIRAMICHI RCS
NEW BRUNSWICK
Current Station Operator: ECCC - MSC

47°00'34.000" N
65°27'54.000" W
33.00 m
8100989
71744
ACQ

Download Data

Hourly Data (March 2020)
Hourly Data Report for March 18, 2020
TIME
LST
Temp Definition
°C
Dew Point Definition
°C
Rel Hum Definition
%
Precip. Amount Definition
mm

Wind Dir Definition
10's deg

Wind Spd Definition
km/h
Visibility Definition
km
Stn Press Definition
kPa
Hmdx Definition


Wind Chill Definition


Weather Definition


00:00 -0.2 -1.4 92 LegendMM 23 16   100.84   -5 LegendNANA
01:00 -0.4 -1.5 92 LegendMM 24 18   100.82   -5 LegendNANA
02:00 -0.6 -1.7 92 LegendMM 24 19   100.89   -6 LegendNANA
03:00 -0.3 -2.6 84 LegendMM 28 19   101.03   -5 LegendNANA
04:00 -1.0 -7.0 64 LegendMM 28 17   101.15   -6 LegendNANA
05:00 -1.6 -7.8 62 LegendMM 28 17   101.30   -7 LegendNANA
06:00 -1.9 -8.4 61 LegendMM 28 17   101.43   -7 LegendNANA
07:00 -2.6 -9.6 59 LegendMM 28 18   101.56   -8 LegendNANA
08:00 -2.6 -12.3 47 LegendMM 29 25   101.71   -9 LegendNANA
09:00 -2.2 -11.8 48 LegendMM 29 22   101.84   -8 LegendNANA
10:00 -1.7 -12.6 43 LegendMM 28 23   101.92   -8 LegendNANA
11:00 -1.0 -14.3 36 LegendMM 29 23   101.99   -7 LegendNANA
12:00 0.1 -13.6 35 LegendMM 28 18   102.05     LegendNANA
13:00 0.6 -13.9 33 LegendMM 29 27   102.12     LegendNANA
14:00 1.7 -14.5 29 LegendMM 28 21   102.15     LegendNANA
15:00 1.9 -13.8 30 LegendMM 26 23   102.16     LegendNANA
16:00 2.0 -15.3 26 LegendMM 27 21   102.23     LegendNANA
17:00 1.5 -14.5 29 LegendMM 28 20   102.34     LegendNANA
18:00 0.4 -16.4 27 LegendMM 26 22   102.46     LegendNANA
19:00 -1.3 -15.7 32 LegendMM 26 8   102.58   -4 LegendNANA
20:00 -2.5 -16.1 34 LegendMM 27 10   102.67   -6 LegendNANA
21:00 -3.9 -14.7 43 LegendMM 27 10   102.77   -8 LegendNANA
22:00 -3.9 -16.7 36 LegendMM 27 6   102.82   -7 LegendNANA
23:00 -7.3 -16.2 49 LegendMM 30 3   102.84   -9 LegendNANA

Notes on Data Quality.

Legend

  • E = Estimated
  • M = Missing
  • NA = Not Available*
  • [empty] = Indicates an unobserved value
Date modified: